Flag for Saudi Arabia Weather past 2 weeks in Qatif, Saudi Arabia

Now
64 °F

Fog.


Feels Like: 64 °F
Forecast: 61 / 83 °F
Wind: 5 mph from West

Location: King Fahd International Airport

Current Time: Mar 28, 2015 at 5:05:07 AM

Latest Report: Mar 28, 2015 at 4:00 AM


Visibility: 3 mi

Pressure: 29.98 "Hg

Humidity: 83%

Dew point: 59 °F

Location of QatifLocation

Historic Weather in Qatif — Graph

°F

Qatif temperature yesterday

Maximum temperature yesterday: 81 °F (at 12:00 PM)
Minimum temperature yesterday: 66 °F (at 2:00 AM)
Average temperature yesterday: 72 °F

Past Weeks' High & Low Weather Summary

 TemperatureHumidityPressure
High91 °F (Mar 21, 2:00 PM)88% (Mar 17, 5:00 AM)30.12 "Hg (Mar 17, 5:00 AM)
Low55 °F (Mar 24, 6:00 AM)19% (Mar 14, 5:00 PM)29.80 "Hg (Mar 19, 12:00 AM)
Average72 °F61%29.95 "Hg
* Reported Mar 13 4:00 AM — Mar 28 4:00 AM, Qatif, Weather by CustomWeather, © 2015

Note: Actual official high and low records may vary slightly from our data, if they occured in-between our weather recording intervals... More about our weather records

Advertising

Qatif weather history for previous 24 hours

 ConditionsComfort  
Time TempWeatherWind HumidityBarometerVisibility
4:00 AM
Sat, Mar 28
64 °FFog.5 mph83%29.98 "Hg3 mi
3:00 AM64 °FFog.5 mph88%29.98 "Hg3 mi
2:00 AM66 °FFog.5 mph83%30.01 "Hg3 mi
1:00 AM66 °FClear.5 mph88%30.01 "Hg4 mi
12:00 AM68 °FClear.3 mph83%30.01 "Hg4 mi
11:00 PM
Fri, Mar 27
70 °FClear.5 mph78%30.01 "Hg4 mi
10:00 PM70 °FClear.9 mph78%30.01 "Hg5 mi
9:00 PM70 °FPassing clouds.8 mph78%30.01 "Hg5 mi
8:00 PM70 °FClear.7 mph78%30.01 "Hg10 mi
7:00 PM72 °FClear.9 mph73%30.01 "Hg10 mi
6:00 PM73 °FClear.8 mph69%29.98 "Hg10 mi
5:00 PM75 °FSunny.14 mph61%29.95 "Hg10 mi
4:00 PM77 °FSunny.14 mph61%29.95 "Hg10 mi
3:00 PM79 °FSunny.14 mph58%29.95 "Hg10 mi
2:00 PM79 °FSunny.15 mph54%29.98 "Hg10 mi
1:00 PM81 °FSunny.13 mph51%29.98 "Hg10 mi
12:00 PM81 °FSunny.9 mph54%29.98 "Hg10 mi
11:00 AM79 °FSunny.9 mph58%30.01 "Hg10 mi
10:00 AM79 °FSunny.12 mph54%30.04 "Hg10 mi
9:00 AM75 °FSunny.9 mph65%30.04 "Hg10 mi
8:00 AM70 °FSunny.8 mph73%30.01 "Hg10 mi
7:00 AM68 °FPartly sunny.8 mph78%30.01 "Hg5 mi
6:00 AM68 °FMore clouds than sun.5 mph78%29.98 "Hg4 mi
5:00 AM66 °FOvercast.5 mph83%29.98 "Hg5 mi
Weather by CustomWeather, © 2015

See weather overviewHow to use our weather pages